Wind_Speed
26 25 25 25 25 25 24 24 24 23 23 22 21 20 19 19 18 17 17 16 16 16 15 15 15 15 15 15 15 16 16 17 17 17 17 17 18 18 19 19 20 20 20 21 22 23 23 24 24 24 24 24 24 24 24 24 24 23 22 21 19 20 23 24 23 23 23 22 22 21 21 19 19 22 21 19 20 21 21 22 24 23 22 23 25 24 20 18
28 28 27 27 27 26 26 25 25 24 23 22 21 20 20 19 19 19 18 18 18 17 17 17 18 18 18 18 18 18 19 20 20 20 20 20 21 21 22 22 22 22 23 23 24 25 25 26 26 26 26 26 25 25 25 24 23 23 21 20 20 22 24 25 26 25 24 23 22 21 22 22 21 22 23 21 20 20 20 22 25 24 23 23 23 23 20 17
29 29 28 28 27 27 26 25 24 24 23 22 21 21 21 21 20 20 20 20 20 20 20 20 20 20 20 20 21 21 22 23 23 23 22 23 24 24 25 25 25 25 25 25 26 26 27 27 27 27 27 26 25 24 24 23 22 22 21 20 22 24 25 25 27 27 25 24 24 23 23 23 24 23 22 23 21 19 20 23 24 24 24 25 23 21 19 17
30 29 28 28 27 27 26 25 24 24 23 23 23 23 22 23 23 23 23 23 23 23 23 23 23 23 23 23 23 24 24 26 26 25 25 26 26 27 27 27 26 27 27 28 28 28 29 29 28 27 26 26 25 23 23 23 23 22 22 22 24 26 27 26 28 27 25 24 25 25 25 24 25 24 24 24 20 16 19 24 25 24 24 25 24 21 19 16
29 29 28 28 27 27 26 26 25 25 25 25 25 25 25 25 25 26 26 26 26 26 26 26 26 26 26 26 26 26 27 28 28 27 28 28 29 29 29 29 29 29 30 30 30 29 29 28 27 27 26 25 25 24 23 24 24 24 24 26 26 28 28 27 28 28 26 25 25 27 28 26 26 25 26 25 18 16 20 25 28 26 23 22 21 21 20 19
30 30 29 29 29 29 28 28 27 27 27 27 27 27 28 28 28 29 29 29 29 29 29 29 29 28 28 28 28 28 29 31 31 30 30 30 31 32 31 31 32 31 31 31 30 29 28 27 27 27 26 25 25 26 25 26 28 26 26 28 29 29 29 27 27 28 27 26 26 28 29 28 28 27 26 24 20 19 22 25 30 28 24 21 21 21 21 21
33 32 32 32 31 31 31 30 30 30 30 31 31 31 31 31 32 32 32 32 32 32 32 32 32 31 31 31 31 31 30 33 35 33 32 33 34 34 34 33 33 32 32 31 29 28 27 26 26 27 26 26 27 28 28 29 31 29 27 29 30 30 30 28 27 27 28 28 27 29 30 29 31 30 26 24 24 24 25 26 30 28 26 25 22 22 22 22
36 35 35 35 35 34 34 34 33 34 34 34 34 34 34 35 35 35 36 36 36 36 35 35 35 35 35 34 34 33 32 35 38 36 34 35 35 35 34 34 33 32 31 29 28 26 26 26 27 28 28 28 29 29 31 31 32 31 30 30 30 29 30 30 29 28 29 30 30 31 31 30 33 33 26 24 27 28 27 27 29 29 27 27 25 23 23 22
39 38 38 38 38 37 37 37 36 36 36 36 36 36 36 36 36 36 37 37 37 37 37 37 37 37 36 36 36 33 33 36 38 37 36 35 35 34 33 32 31 30 29 28 27 27 27 28 29 30 30 30 31 31 32 33 33 32 33 32 30 29 29 30 30 30 32 32 34 34 31 30 34 35 28 25 30 29 28 28 30 32 29 27 27 25 24 23
40 40 40 40 39 39 38 38 38 37 36 36 36 35 35 35 35 35 35 35 36 36 36 36 36 36 36 35 35 31 31 35 36 35 35 33 32 31 30 29 28 28 28 28 28 28 29 30 31 32 33 32 32 32 33 34 34 34 35 34 32 31 30 30 31 32 34 35 35 37 34 31 34 36 29 25 30 31 28 28 30 32 31 29 28 27 27 25
41 40 40 40 39 39 38 37 37 36 35 35 34 34 34 33 33 33 33 33 34 34 34 34 33 34 33 32 30 27 29 32 33 32 32 30 29 28 27 28 28 28 29 29 29 30 32 33 34 35 35 33 33 33 34 35 35 35 36 36 33 34 32 30 34 34 36 36 35 38 38 33 33 35 32 28 31 32 30 29 30 31 30 30 29 28 28 27
40 40 39 39 39 38 37 37 36 36 35 35 35 35 35 35 35 35 35 35 35 34 34 33 32 32 31 28 26 26 28 29 30 31 30 30 29 28 28 29 29 30 31 31 32 33 35 36 36 37 37 35 34 35 35 35 36 36 36 38 35 35 34 31 36 37 36 38 36 38 41 37 33 34 34 32 32 33 32 30 30 31 30 31 31 30 30 30
41 41 40 40 39 39 38 38 37 37 37 37 37 37 37 37 38 38 38 37 37 37 36 35 34 33 32 28 26 28 29 30 31 32 32 32 31 31 32 32 33 34 35 35 35 36 38 38 38 39 38 38 37 37 37 36 38 36 36 40 37 37 37 33 37 38 36 39 38 39 44 42 37 34 34 35 33 33 33 31 30 30 30 31 32 31 31 31
43 43 42 42 42 41 41 41 40 40 40 40 40 40 40 40 41 40 40 40 40 39 39 38 37 36 35 31 29 30 32 33 33 34 35 35 34 34 35 36 37 37 37 38 38 38 39 40 40 40 40 40 40 40 40 39 40 38 37 41 40 41 40 34 36 38 37 39 39 41 46 46 42 37 34 36 34 33 34 32 31 31 31 32 32 32 31 32
44 44 44 44 44 43 43 43 43 42 42 42 42 42 42 42 42 42 42 42 41 41 41 40 40 40 38 34 33 34 35 36 36 37 38 38 38 37 37 38 39 38 39 39 39 40 40 41 42 42 42 42 41 41 42 42 42 40 40 43 42 44 43 38 38 38 37 39 40 42 46 47 45 40 37 36 34 34 34 33 31 32 31 30 31 31 32 32
42 43 43 43 43 43 43 43 43 43 43 43 43 43 43 43 43 43 43 43 42 42 42 41 41 42 41 38 36 37 37 37 38 39 40 40 40 39 39 40 40 40 41 41 41 42 42 42 44 43 44 43 40 41 43 45 43 41 43 46 45 45 45 44 42 40 38 38 41 44 46 47 44 43 40 36 35 36 36 35 33 34 33 30 29 31 32 34
41 41 42 42 42 42 42 42 42 42 43 43 43 43 43 43 43 43 43 43 43 43 42 43 42 42 42 41 39 38 38 38 40 41 41 41 41 41 41 41 42 42 43 43 43 43 43 43 45 44 44 43 40 41 45 46 44 43 45 48 48 47 47 47 45 44 42 40 42 43 44 44 42 42 40 36 35 37 36 34 34 35 36 34 31 32 33 35
42 42 42 42 42 43 43 43 42 42 43 43 44 44 44 44 43 43 44 44 43 43 43 44 43 43 44 43 41 40 39 40 41 42 42 42 42 43 43 43 43 44 44 44 44 44 44 44 46 46 44 42 40 43 46 47 46 46 47 48 49 49 48 49 47 47 47 46 46 45 44 44 42 43 43 41 40 41 40 36 34 35 37 37 35 34 35 36
43 43 43 43 43 44 44 43 44 44 44 45 45 46 46 46 45 45 46 45 44 45 46 46 45 45 46 45 45 43 42 42 43 43 43 43 44 44 44 45 45 44 45 45 45 46 46 45 49 48 45 43 42 44 46 47 47 48 48 49 50 50 49 50 48 47 48 50 50 48 46 46 46 46 46 45 45 45 45 41 39 39 40 40 39 38 37 37
44 44 44 44 44 44 44 44 45 45 46 46 46 47 48 47 47 48 48 46 46 46 47 48 47 47 46 47 48 46 44 45 45 44 43 44 45 45 46 46 46 46 46 46 47 48 46 46 49 48 45 44 44 46 47 48 49 49 50 50 51 51 51 51 49 48 49 51 51 49 48 48 48 48 46 47 47 48 48 46 44 43 44 43 42 42 41 39
45 45 45 44 44 44 45 45 46 47 47 47 46 46 47 48 47 49 49 47 46 47 47 48 49 48 46 48 50 47 46 47 46 45 45 45 46 46 47 47 47 47 45 47 49 48 46 46 48 49 48 46 44 46 48 50 50 51 51 51 51 53 53 52 50 51 51 52 51 50 50 49 49 49 49 49 50 50 49 48 47 47 46 44 43 42 41 40
47 46 46 46 46 46 47 47 48 48 48 48 47 46 46 47 47 48 49 48 46 47 48 48 49 50 48 49 49 47 47 48 47 46 45 45 46 46 48 47 46 46 46 48 49 48 48 48 47 50 50 47 44 46 49 51 52 52 52 53 54 54 54 54 53 54 55 54 54 53 53 52 51 51 51 51 50 48 48 48 47 47 48 46 44 42 40 39
49 49 49 48 48 49 49 50 50 50 49 49 49 49 48 48 48 48 49 50 48 46 48 48 49 50 50 51 50 48 49 49 48 47 45 45 46 46 48 48 47 46 47 49 49 48 49 48 48 50 49 47 46 47 48 50 51 52 53 54 55 54 54 55 55 55 56 57 57 56 56 56 54 53 53 52 49 45 46 49 48 46 46 45 45 43 40 37
51 51 51 51 51 51 52 53 53 53 52 52 52 52 51 51 51 50 50 51 51 48 47 48 50 51 51 51 50 49 49 48 48 47 45 44 46 47 47 48 49 47 47 49 49 48 47 46 46 48 48 48 47 47 47 48 50 51 52 53 54 53 52 54 55 56 55 56 57 58 58 58 56 55 55 54 53 51 51 52 51 49 46 44 43 42 38 33
53 53 53 52 53 53 54 55 55 55 55 55 55 54 54 53 53 53 52 52 52 50 48 49 49 50 51 50 49 47 47 47 45 44 43 42 44 44 44 45 47 47 46 47 49 49 47 43 42 44 47 48 48 47 45 47 50 50 50 50 51 51 52 52 53 55 55 55 56 57 59 58 56 54 54 53 53 56 56 54 52 50 47 45 42 38 36 35
55 55 55 54 54 55 56 56 56 55 55 55 55 55 55 54 53 52 51 51 53 51 49 48 47 47 47 46 45 45 44 44 43 42 42 41 41 42 42 42 43 44 44 45 45 46 46 43 42 43 44 46 47 46 45 47 49 50 50 48 48 50 51 52 52 53 55 55 56 57 58 60 58 54 52 51 52 55 56 53 51 49 48 46 41 37 36 34
58 57 56 56 56 56 57 56 55 55 53 53 53 54 54 53 53 51 49 51 54 53 52 50 47 45 44 43 43 44 44 43 43 43 42 41 41 42 42 42 41 42 43 43 43 44 43 42 41 42 43 44 45 44 44 46 47 48 48 47 46 47 49 50 50 51 52 53 55 55 55 57 58 55 51 50 52 54 53 51 49 47 46 45 42 38 37 34
59 58 57 57 57 57 56 54 53 53 52 51 51 51 52 52 51 49 49 52 56 56 54 52 49 47 45 44 45 45 45 45 45 45 44 43 44 43 44 44 43 43 42 42 44 44 43 42 42 41 41 42 42 42 42 43 44 45 45 45 46 46 46 46 47 49 50 52 54 52 51 53 55 54 51 50 53 54 51 49 49 47 45 45 43 40 38 36
57 57 56 57 57 55 53 51 51 51 50 49 49 49 50 51 50 49 49 53 57 58 55 52 50 50 48 47 47 47 47 47 47 47 47 46 46 46 46 46 46 45 44 43 43 44 45 46 44 42 42 42 42 42 42 42 43 43 43 44 45 45 45 46 47 48 49 52 53 51 50 52 54 53 51 52 54 54 52 50 49 48 46 46 46 42 39 37
50 51 52 54 54 52 51 51 52 52 50 48 49 50 51 51 50 49 51 55 57 56 55 52 50 49 48 48 48 48 48 48 49 49 49 49 48 47 47 47 47 46 46 46 44 43 46 48 46 44 43 43 43 43 43 42 42 42 43 44 44 45 46 47 48 49 51 52 52 51 51 52 53 54 54 54 55 54 52 50 49 49 49 49 49 45 40 38
42 43 46 49 50 48 49 51 52 52 51 49 50 51 52 52 51 52 55 56 54 52 52 51 49 48 48 48 48 49 49 49 49 49 49 50 49 48 47 47 47 47 46 46 45 45 46 47 45 45 45 44 43 44 43 42 42 42 44 45 46 47 48 49 50 51 52 52 51 52 53 53 54 55 55 56 56 54 52 50 50 51 51 51 51 48 44 41
41 42 43 45 47 47 47 50 51 51 50 49 50 50 51 52 54 55 55 52 50 50 49 48 49 49 49 49 50 51 50 50 50 50 50 51 50 49 48 48 48 48 47 46 46 47 47 47 47 46 45 45 45 45 44 44 44 45 46 47 48 49 50 51 52 52 52 52 53 54 54 56 58 58 58 57 56 55 53 52 51 51 52 51 51 51 50 47
42 44 45 45 47 47 45 46 50 51 52 51 50 49 49 52 55 55 51 47 46 48 49 49 51 52 51 52 53 53 52 51 51 51 51 51 51 51 50 50 49 50 50 50 50 51 52 53 52 50 47 46 45 45 45 46 47 47 47 48 49 50 50 51 51 51 51 51 52 53 54 57 59 58 58 58 57 57 56 55 54 54 54 55 54 55 55 54
46 46 44 43 47 50 48 49 52 53 54 52 49 47 47 50 52 51 48 47 48 51 52 53 53 52 52 52 52 52 51 51 51 50 50 51 51 51 50 49 49 49 51 53 54 56 57 58 58 55 52 49 46 45 46 47 47 47 47 48 49 49 49 50 50 51 51 52 53 52 54 57 57 56 56 57 58 58 58 57 57 58 57 58 59 59 59 60
52 50 47 44 47 51 51 52 53 53 52 50 50 50 50 51 51 50 50 50 51 52 52 52 51 50 51 50 50 50 50 50 50 49 49 50 50 50 49 49 50 50 50 52 54 56 57 57 56 55 53 50 46 45 46 46 47 48 49 49 49 48 48 50 52 53 53 56 56 54 54 55 56 56 57 58 59 59 59 60 60 60 60 61 62 62 63 64
55 55 53 49 49 51 52 52 51 52 52 52 55 56 55 56 57 56 54 52 51 50 49 48 47 47 47 48 47 48 50 50 49 49 48 48 48 48 49 49 51 51 50 49 50 51 52 52 51 50 50 48 46 47 48 47 48 50 51 51 52 52 53 55 56 56 57 61 61 57 57 58 58 61 62 62 63 63 64 65 65 65 66 66 67 67 67 67
56 56 56 55 54 55 55 55 54 56 57 58 59 59 59 61 62 59 56 54 52 50 48 46 45 44 45 46 47 49 50 50 50 50 49 48 49 49 48 48 50 50 49 48 49 49 50 50 49 48 50 51 50 52 53 53 53 54 54 54 55 56 58 58 59 60 61 64 64 63 64 64 64 66 68 67 66 65 65 65 66 67 67 68 69 69 68 67
58 58 58 59 59 60 60 60 60 60 60 60 60 61 62 63 62 59 57 55 51 49 48 47 48 47 47 49 51 50 50 50 51 51 50 50 51 51 50 51 51 51 50 51 53 54 55 55 53 53 56 58 57 58 60 60 59 58 57 56 55 57 58 58 59 60 60 62 64 63 62 62 61 62 64 64 62 61 60 59 60 62 63 63 64 64 64 63
58 60 59 59 61 63 64 62 61 61 61 62 61 61 61 60 59 58 56 53 51 50 51 52 52 52 52 52 51 49 50 51 51 53 54 54 54 54 54 55 56 56 56 57 59 61 61 62 61 60 60 62 62 62 62 60 60 59 58 56 54 53 54 54 55 57 58 60 61 59 57 56 55 55 57 59 57 55 55 55 57 58 58 58 58 59 59 59
58 59 57 57 59 62 63 62 61 62 64 64 63 63 63 61 59 57 57 55 53 53 54 54 55 55 53 51 48 48 50 52 52 54 56 56 56 58 58 58 59 60 62 63 63 63 63 63 63 62 62 62 60 58 57 57 57 58 57 55 53 52 51 51 52 51 51 54 54 53 55 53 50 50 52 53 53 53 54 55 55 55 54 54 53 53 52 51
59 59 57 56 58 60 61 63 64 65 66 66 66 66 64 63 61 60 59 57 55 55 56 56 56 55 53 50 47 47 50 53 54 56 58 59 60 62 62 61 61 61 62 62 62 63 62 61 62 61 61 60 56 54 54 55 55 55 55 53 51 49 46 46 48 46 46 49 51 51 54 52 47 46 48 50 53 53 53 52 50 47 47 47 47 47 45 44
60 61 59 57 58 59 60 63 64 65 67 66 65 63 61 62 62 60 58 57 56 56 57 57 57 56 54 53 51 51 54 58 59 60 61 61 61 61 61 60 60 60 60 60 60 61 61 60 61 60 59 58 56 55 55 55 54 52 51 50 47 46 45 46 50 49 48 51 51 52 55 54 48 46 48 51 53 52 51 51 50 49 49 49 51 53 54 55
59 60 59 59 58 59 60 62 62 64 65 63 61 61 61 61 60 58 58 58 57 56 56 57 57 56 55 55 55 55 57 60 60 60 60 60 60 60 59 58 58 57 58 58 58 58 58 58 58 58 57 57 56 56 56 56 54 53 53 52 51 51 50 51 52 51 51 53 53 54 57 55 51 48 49 51 52 50 51 53 54 55 57 58 60 61 62 64
58 59 59 59 59 59 60 61 61 62 61 60 60 61 61 61 60 59 58 58 58 57 58 57 56 56 55 55 56 57 57 59 60 59 59 59 59 59 57 57 57 56 56 57 57 56 57 56 56 56 58 57 55 54 55 56 55 54 54 53 52 51 51 52 52 51 53 55 54 54 56 55 52 51 51 52 53 53 53 55 56 58 59 60 62 64 66 68
60 60 59 58 59 60 61 60 60 61 60 60 62 61 60 61 60 60 60 60 60 59 59 59 58 57 56 55 57 57 58 59 59 59 58 59 59 58 57 57 56 56 55 56 56 55 56 56 56 57 59 59 56 54 54 56 56 56 55 53 52 52 52 54 55 56 58 60 58 57 58 57 56 55 56 56 57 58 59 60 62 64 65 67 69 71 73 74
61 61 60 60 61 62 61 61 61 62 62 62 63 62 62 63 62 62 62 61 61 61 61 61 60 60 58 57 57 58 58 58 59 59 58 58 59 58 56 56 56 56 55 55 55 55 57 58 57 58 60 59 58 56 55 57 59 59 57 55 54 54 55 57 60 62 64 66 65 62 61 63 61 59 61 63 65 66 67 69 71 72 74 75 77 78 77 77
63 63 62 63 64 64 63 63 63 63 63 63 64 63 64 64 65 65 65 64 62 62 62 62 62 61 59 58 58 58 58 58 58 58 57 57 58 58 56 56 55 55 54 55 56 56 58 58 57 58 60 59 59 59 57 58 60 60 59 58 56 56 57 60 63 65 65 68 69 65 63 66 66 63 64 67 71 72 73 74 76 77 77 78 79 79 79 80
65 66 65 65 66 66 65 65 65 65 65 65 65 66 67 67 67 66 66 65 63 62 62 62 62 60 59 59 59 59 57 57 58 57 56 56 57 57 56 55 55 55 55 55 57 57 58 59 57 58 61 59 59 60 60 60 61 61 61 60 59 59 60 62 66 67 67 70 71 68 66 69 69 66 67 69 71 73 74 75 76 77 77 78 78 79 80 81
68 68 68 68 69 68 68 67 67 68 68 68 69 69 69 68 68 66 66 65 64 63 63 62 60 59 59 59 59 58 56 56 57 57 56 56 56 56 56 56 56 55 55 56 57 58 60 60 59 60 62 60 59 60 61 62 63 62 62 62 61 62 63 64 66 67 68 70 70 69 70 70 68 68 69 70 70 72 72 73 74 75 76 77 77 77 78 79
71 71 71 71 71 70 70 69 69 70 70 70 71 70 69 68 66 65 65 65 64 63 62 61 61 60 60 59 58 57 56 57 57 57 57 56 56 55 56 56 57 56 56 57 58 59 60 61 60 62 63 61 58 59 62 64 64 64 63 62 62 62 63 64 65 65 67 69 69 69 72 71 69 68 70 70 70 70 71 72 72 73 74 74 75 76 77 78
72 71 72 72 72 72 72 71 71 71 71 72 71 69 67 66 63 62 64 65 64 62 61 61 61 60 59 58 57 57 57 57 57 57 57 56 56 56 56 57 57 57 57 57 58 59 60 61 61 61 64 63 58 59 64 64 64 65 65 63 62 61 62 63 63 64 66 68 69 70 72 72 71 70 70 70 70 70 71 72 73 74 75 76 76 78 79 80
70 70 70 71 71 71 71 70 70 71 70 69 67 65 64 63 61 61 62 62 61 60 59 59 59 59 58 58 57 57 57 56 56 56 56 56 56 57 57 57 57 58 58 58 59 58 58 60 60 61 64 63 58 60 64 64 65 68 66 63 61 61 62 64 64 64 65 67 70 72 73 73 73 73 72 72 73 74 75 76 77 79 80 80 80 81 82 84
Wind_Direction
256 257 258 260 261 262 264 266 267 269 270 271 272 273 274 274 274 273 271 270 269 269 268 269 269 270 272 274 276 277 278 279 280 281 283 285 285 285 287 287 288 289 289 289 289 289 289 289 289 290 290 290 291 291 291 292 293 294 295 299 301 296 293 298 300 298 300 304 305 305 304 304 302 303 310 310 303 305 308 303 300 301 299 295 292 291 293 294
258 259 260 261 262 264 264 266 266 267 268 268 269 269 269 270 269 269 269 268 268 268 268 269 270 271 272 274 276 278 279 279 279 280 282 282 283 284 285 285 286 287 288 288 288 288 288 288 289 289 288 288 288 289 290 290 291 291 293 297 295 291 293 298 298 298 300 302 302 299 297 300 300 300 307 308 304 308 309 301 299 303 300 294 292 294 299 298
258 259 260 261 262 263 264 264 265 266 266 266 267 267 268 268 268 268 268 269 269 269 269 270 270 271 272 274 275 277 279 279 280 281 282 281 281 282 282 282 284 285 285 286 286 287 287 286 286 286 286 286 286 287 288 288 288 289 292 294 291 291 293 295 295 296 300 301 299 296 295 295 296 299 303 302 306 314 313 303 299 300 298 298 300 303 305 301
257 258 259 259 260 261 261 262 263 264 265 266 267 267 268 268 269 269 270 270 270 271 271 271 272 272 273 274 275 276 278 279 280 281 280 279 280 280 279 281 283 283 284 285 285 285 285 284 284 283 284 284 284 285 284 285 286 287 290 290 289 291 292 293 293 294 297 298 296 295 294 292 292 295 297 297 307 319 310 301 296 295 296 302 308 310 309 302
256 256 257 258 259 260 260 261 262 263 264 265 266 267 268 269 270 270 271 271 272 272 272 272 272 272 272 273 275 276 277 278 278 278 279 279 280 279 279 281 282 283 283 284 284 283 282 281 281 281 281 282 283 283 282 282 283 286 289 290 289 289 290 292 293 294 296 295 295 294 292 291 290 290 291 294 308 316 303 296 292 291 296 303 308 310 309 304
256 257 257 258 259 260 261 262 263 264 265 266 266 267 268 268 269 269 270 270 271 271 271 271 271 272 272 273 274 274 276 277 276 276 277 278 278 279 280 280 281 282 282 282 281 280 279 279 279 280 281 282 282 283 283 283 283 285 288 289 290 290 290 290 290 293 294 293 292 290 290 292 290 288 289 295 305 303 294 288 287 291 298 302 306 307 305 303
257 257 258 259 260 261 262 262 263 264 265 266 266 267 267 268 268 268 269 269 269 269 270 270 270 271 271 272 273 274 276 277 275 275 276 276 277 278 279 279 280 280 279 279 278 277 277 278 278 280 282 283 282 284 285 285 286 287 287 287 289 290 291 290 290 291 292 292 290 289 291 293 291 289 291 299 300 291 284 281 283 290 297 299 302 304 303 303
256 257 258 259 260 260 261 262 263 264 265 265 266 267 267 267 268 268 268 269 269 269 269 269 270 270 270 271 272 273 275 275 275 275 275 275 276 276 277 278 278 278 277 276 275 275 276 277 279 281 282 282 283 286 286 286 287 289 289 286 287 288 289 290 291 291 291 291 290 289 292 295 293 292 296 300 291 284 283 284 286 289 292 295 299 300 301 301
256 257 257 258 259 260 261 262 262 263 264 265 265 266 266 267 267 268 268 269 269 269 269 269 269 269 270 270 271 273 274 273 273 275 275 274 275 275 276 276 276 276 275 275 275 275 276 278 280 281 282 284 286 287 287 287 288 289 289 287 288 287 286 288 290 291 289 289 290 291 294 296 294 293 299 297 285 282 283 285 287 288 290 293 295 297 297 296
255 256 257 258 259 259 260 261 262 263 263 264 264 265 265 266 267 267 268 269 269 269 269 269 269 270 270 270 271 272 272 271 273 274 275 274 274 274 275 275 274 274 274 274 275 276 277 279 280 282 283 285 286 287 287 288 289 289 288 289 290 287 285 287 288 288 287 289 292 294 295 295 293 293 297 292 284 282 282 282 283 286 290 292 293 293 292 291
256 256 257 258 258 259 260 260 261 262 262 263 263 264 264 265 266 267 268 269 270 270 270 270 269 270 270 270 271 271 268 269 272 273 274 274 274 274 274 274 274 274 274 274 275 277 278 279 281 282 283 284 285 285 286 288 288 288 289 290 290 288 287 289 287 285 287 289 292 294 293 293 293 293 295 291 286 286 285 284 283 286 290 291 291 290 289 288
256 257 257 258 258 259 259 260 260 260 261 261 262 263 264 265 266 267 268 269 270 270 270 270 270 269 269 269 270 268 266 268 270 272 273 273 274 275 275 274 275 275 275 275 276 278 279 280 281 282 283 284 284 284 284 285 285 287 289 288 288 287 287 287 285 285 287 289 291 291 290 290 291 290 291 290 287 288 288 287 287 289 290 289 289 288 288 287
257 257 258 258 259 259 260 260 260 260 260 261 262 263 264 265 267 268 268 269 270 270 270 270 270 269 269 268 268 267 267 267 268 270 272 272 274 275 275 275 276 276 276 278 278 279 279 281 282 282 283 284 284 284 284 285 284 286 287 286 287 285 283 283 283 285 287 287 289 290 288 289 289 289 290 289 289 290 290 290 289 287 286 286 287 287 287 286
258 259 259 260 260 260 261 261 261 261 261 262 263 264 265 266 267 268 268 269 269 270 270 270 270 269 269 268 267 267 267 268 268 270 271 272 273 274 275 275 275 276 277 278 279 279 280 282 283 283 284 285 285 286 287 286 285 286 286 285 286 283 281 282 282 283 285 286 287 287 286 287 288 290 291 289 291 292 291 291 289 287 285 284 286 287 286 284
259 260 260 261 261 261 262 262 262 262 263 263 264 264 265 266 266 267 268 268 269 269 270 270 270 270 269 268 267 266 266 268 270 270 271 273 273 273 274 274 274 275 276 276 277 278 279 281 282 283 284 284 286 288 289 288 286 288 287 284 284 283 285 285 282 283 285 286 286 284 283 284 287 290 290 290 294 293 290 289 288 286 285 285 287 287 284 280
260 260 261 262 262 262 263 263 263 264 264 264 264 264 265 265 266 267 267 268 268 268 269 270 270 270 270 269 267 267 267 269 270 270 271 272 272 273 273 274 275 275 276 276 277 278 279 280 281 282 282 283 286 288 288 286 287 289 287 285 285 285 287 287 286 286 285 285 285 283 282 283 287 290 290 293 295 292 290 291 291 289 287 287 287 285 283 280
261 261 261 262 263 263 263 264 264 264 265 265 265 265 265 266 266 267 267 267 268 268 269 269 270 270 271 271 269 268 269 270 270 270 271 271 273 273 274 275 276 277 277 278 278 279 280 280 280 280 281 283 286 287 285 285 287 287 286 286 288 288 288 289 290 291 291 289 285 283 282 284 287 288 288 291 291 287 287 289 290 289 288 287 286 285 285 282
260 261 262 262 263 264 264 265 265 265 266 266 266 266 266 267 267 268 268 268 269 270 270 270 271 272 272 272 272 271 270 270 270 271 272 273 274 275 276 276 276 277 278 278 280 280 280 280 280 280 282 285 286 285 283 285 287 286 286 287 288 289 290 290 292 294 295 293 290 288 288 290 291 292 293 296 294 292 292 292 290 288 286 284 285 286 285 284
260 260 261 262 263 264 265 266 266 266 266 266 266 267 267 267 267 268 268 268 270 270 271 271 271 272 273 273 273 272 272 271 271 272 273 274 275 276 276 276 276 277 278 279 280 279 280 281 281 281 284 285 284 282 283 285 285 285 286 286 286 288 289 289 290 292 292 290 289 290 291 292 292 293 295 296 295 295 295 295 295 291 288 286 286 286 285 283
259 260 260 262 263 264 265 266 266 266 266 266 266 266 266 266 267 267 267 268 269 269 270 271 271 270 272 274 273 272 272 272 272 272 273 274 274 275 275 275 276 276 278 279 278 277 279 280 280 282 283 283 282 283 284 284 284 284 284 285 286 287 286 287 289 289 288 287 287 288 289 289 289 291 292 292 293 294 295 297 296 292 288 288 287 287 287 286
259 259 260 262 263 264 265 265 266 266 266 266 267 267 267 267 267 267 267 267 268 269 270 271 271 271 271 271 272 273 273 272 272 273 273 273 273 274 274 275 276 276 277 277 276 278 279 279 280 282 281 280 282 284 284 284 283 283 284 285 285 285 285 286 288 288 286 286 286 287 287 286 286 288 289 290 291 293 296 297 295 292 288 287 286 286 287 287
259 260 261 262 263 265 266 266 267 267 267 267 268 268 268 269 269 270 270 269 268 269 270 270 272 273 272 271 272 273 273 273 273 272 273 273 274 275 275 275 275 276 276 276 277 279 280 279 280 280 281 283 283 282 281 282 283 284 285 285 285 285 286 287 288 287 287 286 286 286 285 284 285 286 286 287 288 292 294 293 291 290 290 291 290 287 285 284
260 261 262 263 264 266 267 267 267 267 268 268 268 269 269 271 272 273 273 272 270 268 270 271 272 273 273 273 275 274 273 274 274 274 274 274 274 274 275 276 276 276 277 277 278 279 279 280 281 280 281 282 281 279 280 281 282 283 284 284 285 286 288 288 287 286 286 287 287 287 286 286 288 289 289 289 291 293 291 289 290 289 290 292 293 292 290 287
261 262 263 264 266 267 267 268 268 268 268 268 268 269 270 271 273 273 274 274 273 270 269 270 272 273 274 275 276 276 276 277 277 277 276 275 274 274 275 276 277 277 277 277 278 278 278 280 280 281 283 282 280 280 281 282 282 282 283 284 285 286 287 287 287 286 287 287 287 288 288 288 291 292 294 297 300 298 294 294 296 296 296 297 297 299 301 301
260 261 263 264 266 267 268 268 269 269 269 268 268 269 270 271 272 273 274 275 274 272 270 270 271 272 274 276 277 278 279 280 280 281 280 278 277 276 275 275 276 276 276 276 277 277 277 277 278 280 282 283 284 284 284 284 284 284 285 285 286 287 286 285 286 286 287 287 287 288 288 288 289 292 295 299 300 298 296 296 298 299 300 301 302 305 309 311
259 261 263 264 266 268 268 269 270 270 270 269 269 268 269 271 272 273 274 274 274 273 272 271 271 272 273 276 278 280 281 282 283 283 282 281 280 280 278 276 276 276 275 275 276 277 278 278 278 278 279 281 284 286 287 286 286 286 286 286 286 286 286 286 287 287 287 288 288 289 290 289 290 292 295 296 294 292 292 294 296 298 299 301 304 309 311 312
259 261 262 264 266 267 268 269 270 270 269 268 268 268 269 270 271 272 273 273 273 274 274 273 273 274 275 277 279 280 282 283 283 283 284 284 283 282 280 279 278 277 277 278 278 278 278 278 279 279 279 280 282 284 285 285 285 286 286 285 285 284 285 286 287 287 287 287 287 288 290 291 291 293 295 294 291 289 290 292 294 296 298 300 304 308 308 309
260 261 263 264 265 266 267 267 269 269 268 268 268 267 267 268 269 271 273 273 272 272 274 275 277 278 279 280 280 281 281 282 283 284 284 284 283 282 281 280 279 279 278 278 279 279 279 280 280 280 281 281 282 282 281 281 282 283 284 284 283 283 284 285 285 286 287 286 287 289 291 291 291 293 294 293 291 291 292 294 296 297 299 299 301 303 302 304
260 262 263 263 264 264 265 266 267 268 267 268 268 267 267 268 269 270 271 271 271 272 274 277 279 280 282 282 282 282 282 282 282 283 283 282 282 282 281 281 280 280 280 278 278 279 280 281 281 282 283 283 283 282 280 279 279 280 281 281 282 283 283 284 284 285 285 286 288 290 291 291 291 292 291 291 291 293 295 297 298 299 299 298 299 300 300 301
260 261 261 261 262 263 264 264 266 267 267 267 267 266 266 267 268 269 269 269 270 272 275 277 279 281 283 284 284 283 283 283 283 282 282 281 281 281 281 280 280 280 280 280 279 278 279 281 282 284 286 286 285 283 281 279 278 279 280 280 281 282 282 283 283 284 285 286 288 289 290 290 290 289 289 289 290 291 294 296 298 298 297 296 296 298 299 300
259 260 260 260 261 263 265 266 266 267 267 266 265 265 267 267 267 267 267 268 270 271 273 276 278 280 281 283 284 284 285 284 284 283 282 281 281 281 282 282 281 281 281 280 279 278 279 281 282 284 286 287 286 284 282 280 279 279 280 280 281 282 282 283 283 283 284 286 288 288 288 287 287 287 287 288 289 290 293 295 295 294 294 294 295 295 296 297
258 258 259 260 261 262 265 268 269 268 268 268 268 268 269 269 269 268 268 270 271 272 273 275 277 279 281 282 283 283 284 284 283 282 281 281 281 281 282 282 282 281 281 280 280 280 281 282 282 284 285 286 285 284 283 281 280 280 281 281 282 283 283 283 283 284 285 286 285 285 285 285 285 286 287 288 290 291 292 293 292 292 292 291 292 292 292 293
257 257 259 260 261 262 263 265 266 267 269 270 269 266 266 267 270 271 272 273 273 274 275 276 279 281 282 283 284 284 283 283 282 282 281 281 282 283 283 283 283 283 283 283 283 283 282 282 283 284 283 283 284 284 283 282 281 281 281 282 283 284 284 283 284 285 285 284 283 283 283 283 284 285 287 289 290 290 289 289 289 290 290 290 289 288 289 290
253 255 257 258 260 261 262 260 259 260 262 262 258 257 257 261 267 272 274 275 275 275 276 278 279 280 281 282 282 282 283 282 282 283 283 284 284 284 285 285 284 283 284 285 284 283 282 282 282 283 284 284 284 282 280 280 281 280 281 282 283 284 284 283 284 284 282 280 280 281 283 284 286 287 288 288 289 289 290 290 290 289 288 287 287 287 288 288
252 251 252 254 256 255 255 255 252 249 250 250 250 253 254 258 266 272 274 275 275 276 276 276 276 276 277 278 279 281 281 281 282 282 281 282 282 283 283 282 281 280 281 281 281 281 281 281 282 282 283 283 281 279 279 279 280 280 281 282 283 284 283 281 281 281 280 279 278 280 281 283 286 286 286 287 288 289 290 289 288 287 285 284 283 283 283 282
252 250 248 249 250 249 248 248 246 245 249 253 255 255 255 260 268 272 274 276 277 277 276 275 273 271 272 274 276 279 280 280 280 279 278 279 279 281 281 279 278 278 278 277 277 278 279 280 281 281 280 279 277 278 278 279 280 280 280 281 282 282 280 279 279 279 278 278 279 281 281 282 283 282 282 283 283 283 284 283 283 282 281 281 280 280 279 279
252 251 249 248 248 249 249 248 247 249 255 260 261 259 259 263 268 273 275 275 276 277 276 274 273 272 273 274 276 278 280 279 277 276 277 278 279 281 280 276 274 275 275 276 277 277 278 279 280 280 280 280 279 280 280 281 281 282 282 282 282 281 280 280 279 279 279 279 280 281 281 282 283 283 283 282 281 281 280 280 279 278 278 278 278 278 279 279
253 251 250 248 249 252 254 254 254 257 261 263 262 261 262 264 267 272 274 274 275 277 276 275 276 277 278 280 281 281 280 278 276 275 276 277 278 279 277 273 273 273 273 275 277 278 279 279 279 278 279 280 281 281 282 283 283 283 283 282 280 280 280 281 280 281 281 280 281 282 281 282 283 283 283 283 282 282 280 279 278 278 277 277 277 278 278 278
254 253 252 250 251 254 258 261 262 264 266 266 264 263 264 266 269 272 274 276 278 279 278 278 279 280 281 282 281 280 277 275 274 275 277 278 277 277 276 274 275 275 275 276 278 280 280 281 279 278 279 281 281 281 282 283 284 283 281 281 280 279 279 279 279 280 281 281 282 283 283 283 284 283 283 283 283 282 281 281 281 280 280 279 278 277 277 278
255 255 254 254 254 256 259 263 265 266 267 267 268 268 268 269 272 275 277 280 280 279 279 279 279 280 280 279 279 277 273 271 272 274 276 277 277 277 276 276 276 277 277 279 281 282 282 282 282 280 280 281 282 283 282 282 281 281 281 282 281 280 279 277 276 277 278 278 279 281 282 284 284 283 281 281 281 282 283 283 282 281 280 280 280 281 281 280
256 256 255 256 257 258 260 262 263 265 267 267 268 269 270 271 274 275 277 278 276 276 276 277 278 278 278 276 274 270 267 266 268 270 273 275 276 276 277 277 277 278 279 280 282 283 284 284 284 284 283 282 283 284 282 280 281 281 282 282 282 282 281 278 276 277 275 274 275 278 280 282 281 280 279 278 280 282 281 280 279 277 277 278 279 279 278 274
257 257 256 256 258 259 260 261 262 264 266 267 269 271 273 274 275 275 275 275 274 274 274 275 276 277 275 274 271 266 263 264 266 268 271 273 273 274 276 277 278 278 279 279 280 281 282 283 284 284 283 282 282 282 282 282 283 282 281 282 281 281 280 278 278 280 278 275 274 275 276 276 276 275 275 276 277 277 274 271 269 268 267 268 269 269 269 268
259 259 257 257 259 260 261 262 262 264 266 268 270 272 273 273 274 274 274 274 274 273 272 273 275 274 273 272 271 268 267 266 268 270 272 273 273 274 275 276 277 277 277 277 278 278 280 281 282 282 281 279 279 279 280 281 282 281 281 282 281 279 279 277 277 278 276 273 273 273 273 274 275 274 273 273 273 271 268 266 266 266 266 267 267 268 269 269
259 259 258 258 260 262 262 263 264 266 268 269 270 270 271 273 274 274 274 274 274 273 273 273 273 272 272 272 271 271 271 270 271 273 273 274 274 275 277 277 277 278 278 278 279 279 279 279 279 279 279 279 279 280 279 279 278 277 277 277 277 276 276 275 274 274 271 271 272 272 271 272 274 273 273 272 270 267 265 265 267 267 268 268 269 270 270 270
259 260 260 260 261 262 263 265 266 268 269 269 269 270 272 272 273 274 274 274 274 274 273 274 274 273 273 272 272 273 273 273 273 274 275 275 275 276 278 278 278 278 278 277 278 278 278 277 277 277 277 278 279 280 280 279 277 275 274 273 273 274 275 274 274 272 270 270 270 269 271 274 274 274 274 272 269 266 265 265 266 267 267 268 269 271 272 273
260 261 262 262 263 263 264 266 267 268 269 270 270 271 272 273 273 273 272 273 273 273 273 274 275 275 275 274 273 273 273 273 273 273 275 275 275 276 277 277 278 277 276 276 276 275 275 275 276 276 277 278 279 279 277 276 275 275 274 274 275 276 276 275 274 273 272 271 270 270 273 273 271 271 272 271 270 269 268 268 268 268 269 270 270 271 272 272
261 262 262 263 264 265 266 267 268 269 270 270 270 271 271 271 272 272 272 272 273 273 274 274 275 275 275 275 274 273 273 272 272 273 274 274 275 275 276 275 275 274 274 274 274 274 274 274 276 276 275 276 277 277 276 275 275 275 275 276 277 277 277 276 276 274 274 274 274 275 275 273 271 271 269 269 270 271 270 270 270 271 271 271 271 272 272 272
262 263 263 264 265 266 266 267 268 269 269 269 269 270 270 271 272 272 272 273 273 273 273 274 275 275 275 274 273 274 273 272 271 272 273 273 273 274 274 273 272 272 273 273 273 273 273 273 275 274 273 274 275 276 276 274 273 274 275 276 277 278 278 278 276 275 275 275 276 277 275 273 273 273 271 269 270 271 271 271 271 272 272 271 271 271 272 272
262 263 264 264 265 266 266 267 267 267 268 268 269 270 271 271 271 272 272 272 272 273 273 274 274 273 273 273 273 274 273 271 271 272 272 272 272 272 272 271 271 272 272 271 272 272 272 273 274 272 272 273 274 275 275 273 272 273 273 274 276 279 279 277 275 276 276 276 277 277 276 274 274 274 272 271 271 271 271 271 271 271 272 272 272 272 272 272
262 263 263 264 264 264 265 265 265 266 266 267 268 269 270 270 271 271 271 271 271 272 272 272 272 273 273 273 273 272 271 271 270 271 271 270 270 270 270 270 271 271 271 272 272 272 273 274 274 274 273 273 274 275 273 272 273 272 272 274 278 280 279 277 276 277 277 277 278 278 277 276 276 275 274 273 273 273 273 273 273 273 273 273 274 274 273 273
262 263 263 263 263 264 264 264 264 265 265 267 268 269 269 269 270 270 269 270 270 271 271 271 271 272 271 271 270 270 270 270 270 270 270 269 269 269 269 269 270 271 272 272 272 272 274 274 274 275 274 274 276 275 272 273 273 272 275 279 282 280 278 277 277 277 277 278 279 278 278 278 278 277 276 276 277 277 277 277 277 277 277 277 276 276 276 275
262 262 263 263 263 264 264 264 264 265 266 267 268 267 267 267 267 267 267 269 269 269 269 269 270 270 269 268 268 268 268 268 268 269 269 269 269 269 269 270 271 272 273 273 273 274 274 274 275 274 274 275 276 274 273 273 272 274 280 284 283 280 278 278 277 277 278 279 279 279 279 279 279 279 279 279 279 279 280 280 280 280 279 279 278 278 278 278
Height
5860 5861 5861 5862 5862 5863 5863 5863 5864 5864 5864 5865 5865 5866 5866 5866 5867 5867 5867 5867 5868 5868 5868 5868 5868 5868 5868 5868 5868 5868 5868 5868 5868 5868 5869 5869 5868 5868 5868 5868 5868 5868 5868 5867 5867 5866 5866 5866 5865 5865 5865 5865 5864 5864 5863 5862 5862 5861 5861 5861 5861 5859 5857 5856 5856 5856 5856 5857 5856 5855 5855 5855 5854 5852 5852 5853 5852 5851 5851 5850 5848 5848 5848 5847 5845 5844 5846 5846
5858 5859 5859 5859 5860 5860 5861 5861 5861 5862 5862 5863 5863 5863 5864 5864 5865 5865 5865 5866 5866 5866 5866 5866 5867 5867 5867 5867 5867 5867 5866 5866 5866 5867 5867 5867 5866 5866 5866 5866 5866 5866 5866 5865 5865 5864 5864 5863 5863 5863 5863 5863 5862 5861 5861 5860 5860 5859 5860 5859 5859 5857 5856 5855 5854 5854 5854 5855 5854 5854 5853 5852 5852 5851 5850 5850 5850 5849 5849 5848 5846 5845 5845 5844 5844 5843 5844 5844
5855 5856 5857 5857 5857 5858 5858 5859 5859 5859 5860 5860 5861 5861 5862 5862 5863 5863 5863 5863 5864 5864 5864 5864 5864 5865 5865 5865 5865 5865 5864 5864 5864 5865 5865 5864 5864 5864 5864 5864 5864 5864 5863 5863 5863 5862 5861 5861 5861 5860 5860 5860 5860 5860 5858 5858 5858 5857 5857 5857 5856 5854 5854 5854 5852 5852 5852 5852 5852 5851 5851 5850 5849 5849 5849 5847 5847 5848 5847 5845 5844 5843 5842 5841 5842 5842 5842 5842
5853 5853 5854 5854 5855 5855 5856 5856 5857 5857 5857 5858 5858 5859 5859 5860 5860 5860 5861 5861 5861 5861 5862 5862 5862 5862 5862 5862 5862 5862 5862 5862 5862 5862 5862 5862 5862 5862 5861 5861 5861 5861 5861 5861 5860 5860 5859 5858 5858 5858 5858 5857 5857 5858 5857 5856 5856 5855 5855 5855 5854 5852 5852 5852 5850 5850 5851 5850 5849 5849 5848 5848 5847 5847 5847 5845 5846 5847 5846 5843 5841 5841 5841 5840 5839 5840 5840 5840
5850 5850 5851 5851 5852 5853 5853 5854 5854 5855 5855 5856 5856 5856 5857 5857 5857 5857 5858 5858 5858 5859 5859 5859 5859 5860 5860 5860 5860 5860 5860 5859 5859 5860 5860 5859 5859 5858 5859 5859 5859 5858 5858 5858 5857 5857 5856 5856 5855 5855 5855 5855 5854 5855 5855 5854 5853 5854 5853 5852 5852 5850 5850 5850 5848 5848 5848 5847 5847 5846 5845 5845 5845 5845 5844 5843 5844 5845 5844 5841 5838 5838 5839 5839 5838 5838 5838 5837
5847 5847 5848 5848 5849 5850 5851 5851 5852 5852 5853 5853 5853 5854 5854 5854 5854 5855 5855 5855 5855 5855 5856 5856 5856 5857 5857 5857 5857 5857 5857 5856 5856 5857 5857 5857 5856 5855 5856 5856 5856 5856 5855 5854 5854 5854 5853 5853 5853 5852 5852 5853 5852 5852 5852 5851 5851 5852 5852 5849 5849 5848 5848 5848 5847 5846 5845 5845 5844 5843 5842 5842 5842 5842 5843 5842 5843 5844 5841 5839 5836 5836 5837 5837 5837 5836 5836 5836
5844 5844 5845 5846 5846 5847 5848 5848 5849 5849 5850 5850 5850 5851 5851 5851 5851 5851 5851 5851 5852 5852 5852 5853 5853 5853 5854 5854 5854 5855 5855 5852 5851 5853 5854 5853 5853 5852 5853 5853 5852 5852 5852 5851 5851 5851 5851 5850 5850 5849 5850 5850 5849 5849 5849 5848 5847 5848 5850 5848 5846 5846 5845 5845 5845 5844 5843 5842 5842 5840 5840 5840 5838 5838 5841 5841 5841 5840 5838 5836 5835 5835 5835 5835 5835 5834 5834 5834
5840 5841 5842 5842 5843 5844 5844 5845 5846 5846 5847 5847 5847 5847 5847 5847 5847 5848 5848 5848 5848 5848 5849 5849 5849 5850 5850 5851 5851 5852 5852 5849 5847 5849 5851 5850 5849 5849 5849 5849 5849 5849 5848 5848 5848 5848 5848 5847 5847 5847 5847 5847 5847 5847 5846 5845 5845 5845 5846 5845 5845 5844 5843 5842 5842 5842 5840 5839 5838 5837 5838 5838 5836 5834 5839 5841 5837 5835 5835 5834 5833 5833 5833 5833 5833 5832 5832 5832
5837 5838 5838 5839 5840 5840 5841 5842 5842 5843 5843 5843 5843 5844 5844 5844 5844 5844 5844 5844 5844 5844 5845 5845 5846 5846 5847 5847 5848 5850 5849 5845 5843 5845 5846 5846 5846 5846 5846 5846 5846 5845 5845 5845 5845 5845 5845 5844 5844 5844 5844 5844 5844 5844 5843 5842 5842 5842 5841 5841 5842 5842 5841 5840 5839 5839 5836 5836 5835 5833 5836 5837 5833 5831 5836 5838 5833 5832 5833 5832 5831 5829 5831 5831 5830 5830 5829 5829
5834 5834 5835 5835 5836 5837 5837 5838 5838 5839 5839 5840 5840 5840 5840 5840 5840 5840 5840 5840 5840 5841 5841 5842 5842 5842 5843 5844 5845 5846 5845 5841 5840 5841 5842 5842 5843 5843 5843 5843 5843 5843 5842 5842 5842 5842 5842 5841 5841 5840 5840 5841 5841 5841 5839 5838 5839 5839 5837 5837 5839 5838 5839 5838 5837 5836 5833 5833 5832 5830 5831 5834 5831 5828 5833 5834 5829 5829 5830 5830 5829 5827 5827 5828 5828 5827 5826 5826
5830 5831 5831 5832 5833 5833 5834 5834 5835 5835 5836 5836 5836 5836 5837 5837 5837 5837 5837 5837 5837 5837 5838 5838 5839 5839 5840 5841 5842 5843 5841 5838 5838 5838 5838 5839 5839 5840 5840 5840 5840 5840 5839 5840 5839 5839 5838 5837 5837 5837 5837 5838 5838 5837 5836 5836 5835 5835 5834 5833 5835 5834 5835 5836 5833 5832 5830 5829 5830 5827 5825 5830 5830 5827 5828 5829 5826 5826 5827 5827 5827 5826 5826 5825 5825 5824 5823 5823
5827 5827 5828 5828 5829 5830 5830 5831 5831 5832 5832 5832 5832 5833 5833 5833 5833 5834 5834 5834 5834 5834 5834 5835 5835 5836 5836 5838 5840 5839 5837 5836 5835 5835 5835 5835 5836 5837 5837 5837 5837 5836 5836 5836 5836 5836 5835 5834 5834 5833 5833 5834 5834 5833 5832 5833 5831 5831 5830 5828 5831 5830 5831 5833 5829 5828 5828 5826 5827 5824 5820 5823 5827 5826 5825 5825 5824 5823 5823 5824 5824 5823 5823 5822 5821 5821 5820 5819
5823 5823 5824 5825 5825 5826 5826 5827 5827 5828 5828 5828 5829 5829 5829 5829 5830 5830 5830 5830 5831 5831 5831 5831 5832 5832 5833 5836 5837 5835 5834 5833 5832 5832 5832 5832 5833 5833 5833 5833 5833 5833 5832 5832 5833 5832 5831 5830 5830 5830 5830 5830 5830 5829 5829 5829 5827 5828 5827 5823 5825 5825 5826 5830 5825 5824 5826 5822 5823 5821 5814 5816 5821 5823 5822 5821 5821 5821 5820 5821 5821 5820 5820 5818 5818 5817 5817 5816
5818 5819 5820 5821 5821 5822 5822 5823 5823 5824 5824 5824 5825 5825 5825 5825 5825 5826 5826 5827 5827 5827 5827 5828 5828 5829 5830 5832 5833 5832 5830 5829 5829 5829 5828 5829 5829 5829 5829 5829 5829 5829 5829 5828 5828 5828 5827 5827 5826 5826 5826 5826 5826 5826 5825 5825 5823 5824 5823 5819 5819 5818 5819 5825 5823 5821 5822 5819 5819 5817 5811 5810 5813 5818 5819 5817 5818 5818 5817 5818 5818 5816 5816 5815 5815 5814 5813 5812
5814 5815 5816 5817 5817 5818 5818 5819 5819 5820 5820 5820 5821 5821 5821 5821 5821 5822 5822 5822 5823 5823 5823 5824 5824 5824 5825 5828 5829 5828 5827 5827 5827 5826 5825 5825 5825 5825 5826 5825 5824 5825 5824 5824 5824 5823 5823 5822 5822 5822 5821 5822 5822 5822 5821 5820 5819 5820 5819 5815 5815 5813 5813 5818 5818 5818 5819 5816 5814 5812 5808 5806 5808 5812 5814 5814 5815 5815 5813 5814 5814 5813 5812 5813 5812 5810 5809 5808
5810 5811 5811 5812 5813 5813 5814 5815 5815 5815 5816 5816 5816 5816 5817 5817 5817 5818 5818 5818 5818 5819 5819 5819 5820 5819 5820 5823 5825 5824 5824 5824 5823 5822 5822 5822 5821 5822 5822 5820 5820 5821 5820 5820 5820 5819 5819 5819 5817 5817 5817 5817 5819 5818 5816 5813 5815 5817 5813 5809 5810 5810 5809 5810 5811 5812 5814 5813 5809 5807 5804 5803 5805 5806 5807 5811 5811 5810 5809 5809 5810 5809 5808 5810 5809 5807 5805 5803
5806 5806 5807 5807 5808 5809 5809 5810 5811 5811 5811 5811 5812 5812 5812 5812 5813 5813 5813 5814 5814 5815 5815 5815 5815 5815 5815 5817 5819 5820 5821 5820 5819 5818 5818 5818 5818 5818 5818 5817 5817 5816 5816 5816 5816 5815 5815 5814 5813 5813 5812 5814 5816 5814 5809 5808 5810 5811 5808 5805 5805 5806 5805 5804 5805 5806 5807 5807 5803 5801 5799 5799 5801 5801 5802 5806 5806 5804 5805 5807 5807 5805 5804 5804 5804 5803 5801 5799
5801 5802 5802 5803 5803 5804 5805 5805 5806 5807 5807 5807 5807 5807 5808 5808 5808 5809 5809 5809 5810 5810 5810 5810 5811 5811 5811 5812 5814 5815 5816 5816 5815 5814 5814 5814 5814 5814 5813 5813 5812 5812 5811 5811 5811 5811 5811 5810 5807 5807 5809 5811 5812 5809 5804 5804 5805 5804 5803 5802 5800 5800 5801 5800 5801 5801 5801 5799 5796 5795 5794 5794 5795 5796 5796 5798 5799 5797 5799 5802 5803 5802 5800 5799 5799 5798 5797 5796
5796 5797 5798 5798 5799 5799 5800 5801 5801 5802 5802 5802 5802 5802 5803 5803 5804 5804 5804 5805 5806 5806 5805 5805 5807 5807 5806 5807 5808 5809 5811 5811 5810 5810 5811 5810 5810 5809 5809 5808 5808 5808 5807 5807 5807 5805 5806 5806 5802 5803 5806 5807 5807 5804 5802 5801 5800 5799 5799 5797 5796 5796 5796 5796 5797 5799 5797 5793 5791 5792 5792 5791 5790 5792 5793 5793 5793 5792 5792 5795 5797 5796 5794 5794 5794 5793 5793 5792
5792 5792 5793 5793 5794 5795 5796 5796 5796 5796 5796 5797 5797 5797 5797 5798 5799 5798 5798 5801 5801 5801 5801 5800 5801 5802 5803 5802 5801 5804 5806 5805 5805 5806 5807 5806 5805 5805 5804 5803 5804 5803 5803 5803 5801 5800 5802 5802 5798 5798 5802 5802 5801 5800 5799 5797 5796 5795 5794 5793 5792 5791 5791 5792 5793 5794 5793 5789 5787 5789 5789 5788 5787 5788 5789 5789 5788 5788 5788 5789 5790 5789 5788 5789 5788 5787 5788 5789
5786 5787 5788 5789 5789 5790 5790 5790 5791 5791 5791 5791 5792 5792 5792 5792 5793 5792 5793 5796 5797 5797 5797 5796 5795 5796 5799 5797 5795 5799 5800 5799 5801 5802 5802 5802 5801 5800 5799 5799 5799 5799 5800 5798 5795 5795 5798 5797 5795 5794 5795 5797 5799 5797 5794 5792 5791 5790 5790 5789 5788 5787 5786 5787 5789 5788 5787 5785 5784 5785 5784 5783 5784 5784 5784 5785 5784 5784 5783 5783 5783 5782 5782 5784 5783 5783 5785 5784
5781 5782 5783 5783 5784 5784 5785 5785 5785 5786 5786 5786 5786 5787 5787 5787 5788 5787 5787 5789 5792 5793 5791 5792 5791 5790 5792 5791 5791 5795 5794 5793 5795 5796 5797 5797 5797 5796 5794 5795 5795 5795 5795 5792 5791 5792 5791 5792 5793 5790 5789 5792 5795 5793 5790 5788 5787 5786 5786 5785 5783 5782 5782 5783 5784 5782 5780 5779 5779 5779 5778 5777 5779 5780 5780 5779 5780 5781 5779 5777 5778 5778 5777 5777 5777 5778 5781 5780
5777 5777 5778 5778 5779 5779 5779 5779 5780 5780 5781 5781 5781 5781 5781 5781 5782 5782 5782 5782 5786 5788 5787 5786 5786 5785 5785 5785 5786 5789 5788 5788 5789 5790 5793 5792 5792 5791 5789 5789 5790 5791 5790 5787 5787 5788 5786 5786 5787 5785 5785 5788 5788 5787 5786 5784 5783 5782 5781 5780 5778 5779 5778 5777 5777 5776 5774 5773 5772 5772 5771 5771 5772 5773 5773 5773 5775 5776 5774 5771 5773 5774 5773 5772 5771 5771 5773 5774
5771 5772 5772 5773 5774 5774 5774 5774 5774 5775 5775 5776 5776 5776 5776 5776 5776 5776 5776 5775 5777 5781 5782 5781 5780 5779 5779 5780 5781 5782 5782 5783 5783 5784 5786 5786 5786 5786 5786 5784 5784 5785 5785 5783 5782 5783 5783 5782 5781 5780 5779 5780 5780 5781 5781 5780 5779 5778 5777 5776 5774 5775 5774 5772 5770 5770 5770 5769 5767 5765 5764 5765 5767 5767 5765 5766 5765 5764 5764 5764 5764 5765 5765 5764 5763 5763 5763 5765
5766 5766 5767 5768 5768 5768 5768 5768 5768 5769 5769 5770 5770 5770 5770 5770 5770 5770 5771 5770 5770 5773 5775 5776 5776 5775 5774 5775 5776 5776 5777 5777 5778 5778 5779 5779 5779 5780 5780 5779 5778 5779 5779 5778 5777 5777 5778 5779 5778 5776 5774 5773 5773 5774 5775 5774 5773 5773 5773 5772 5770 5769 5769 5768 5766 5765 5764 5763 5762 5761 5759 5759 5763 5764 5763 5763 5759 5755 5756 5757 5756 5757 5757 5755 5755 5756 5756 5756
5760 5760 5761 5762 5763 5762 5762 5762 5762 5763 5763 5764 5764 5764 5765 5765 5765 5765 5766 5765 5764 5766 5767 5768 5770 5770 5771 5771 5771 5772 5772 5772 5772 5773 5773 5773 5773 5773 5774 5774 5774 5773 5773 5773 5772 5772 5772 5773 5773 5772 5771 5769 5769 5769 5769 5768 5768 5768 5768 5768 5767 5765 5763 5762 5762 5760 5759 5758 5757 5756 5754 5752 5756 5760 5760 5759 5756 5753 5753 5752 5751 5752 5751 5750 5750 5751 5751 5750
5753 5754 5756 5757 5757 5756 5756 5756 5757 5757 5757 5758 5758 5759 5759 5760 5760 5761 5761 5759 5759 5759 5759 5761 5764 5765 5766 5767 5767 5767 5767 5767 5767 5767 5767 5767 5767 5767 5767 5767 5768 5767 5767 5767 5767 5767 5767 5767 5768 5767 5767 5766 5765 5765 5764 5763 5762 5762 5762 5762 5762 5761 5759 5758 5757 5756 5755 5754 5753 5753 5751 5749 5749 5753 5754 5751 5749 5749 5749 5747 5747 5748 5747 5746 5746 5747 5746 5745
5747 5749 5750 5750 5750 5750 5750 5751 5751 5751 5751 5752 5753 5754 5754 5754 5755 5756 5756 5754 5754 5753 5752 5754 5757 5759 5761 5761 5762 5762 5762 5762 5761 5761 5762 5761 5761 5761 5761 5761 5761 5761 5762 5762 5761 5762 5761 5762 5762 5761 5761 5761 5761 5760 5759 5758 5757 5757 5756 5756 5755 5755 5755 5754 5753 5752 5750 5749 5749 5749 5748 5747 5746 5747 5746 5743 5741 5742 5743 5742 5743 5743 5743 5742 5742 5743 5742 5741
5742 5743 5744 5744 5744 5745 5746 5746 5746 5745 5746 5747 5747 5748 5748 5749 5750 5751 5751 5749 5747 5747 5748 5750 5751 5752 5754 5754 5755 5756 5756 5756 5755 5755 5756 5756 5755 5755 5754 5754 5755 5755 5756 5756 5756 5756 5755 5755 5755 5756 5756 5755 5755 5755 5753 5753 5752 5752 5752 5750 5750 5749 5749 5748 5747 5747 5746 5745 5745 5745 5744 5743 5742 5742 5740 5737 5736 5736 5736 5737 5738 5738 5737 5737 5736 5737 5737 5737
5737 5738 5738 5738 5739 5740 5740 5741 5740 5740 5741 5742 5742 5742 5743 5743 5745 5746 5744 5743 5742 5743 5744 5746 5747 5748 5748 5748 5749 5749 5749 5749 5749 5749 5750 5749 5749 5749 5749 5749 5749 5749 5749 5750 5751 5751 5750 5750 5750 5750 5750 5750 5750 5749 5748 5748 5747 5747 5747 5746 5745 5745 5743 5743 5742 5741 5740 5740 5742 5741 5740 5739 5738 5737 5735 5733 5734 5734 5733 5734 5734 5733 5732 5731 5730 5731 5732 5732
5732 5733 5733 5733 5734 5735 5735 5734 5734 5735 5735 5736 5736 5736 5736 5737 5739 5739 5737 5737 5738 5739 5741 5742 5742 5743 5743 5743 5743 5743 5744 5744 5744 5744 5744 5744 5744 5744 5744 5743 5743 5743 5743 5743 5744 5744 5745 5745 5745 5745 5745 5745 5744 5744 5743 5743 5743 5743 5742 5741 5741 5740 5738 5737 5736 5736 5735 5736 5738 5736 5735 5734 5733 5733 5731 5729 5731 5732 5732 5732 5730 5729 5728 5726 5725 5725 5726 5727
5727 5728 5728 5728 5728 5730 5730 5728 5728 5729 5730 5730 5730 5731 5731 5731 5731 5731 5731 5733 5734 5735 5737 5738 5737 5737 5738 5738 5738 5738 5738 5738 5738 5738 5738 5738 5739 5739 5739 5738 5738 5738 5738 5738 5738 5738 5739 5739 5739 5739 5740 5739 5739 5739 5739 5738 5738 5738 5737 5736 5735 5734 5732 5730 5730 5730 5730 5731 5732 5731 5730 5728 5727 5728 5727 5725 5726 5728 5729 5728 5725 5724 5723 5722 5722 5720 5720 5722
5723 5723 5723 5723 5723 5724 5725 5725 5723 5723 5724 5725 5725 5725 5726 5725 5724 5725 5728 5730 5730 5730 5731 5732 5731 5732 5732 5732 5731 5731 5731 5731 5732 5732 5732 5732 5733 5733 5733 5732 5731 5731 5732 5732 5731 5732 5733 5733 5733 5733 5734 5734 5734 5734 5733 5733 5732 5732 5731 5730 5729 5728 5725 5723 5724 5724 5725 5724 5724 5725 5724 5722 5723 5724 5723 5720 5721 5722 5722 5723 5721 5719 5719 5717 5716 5715 5714 5714
5717 5717 5718 5718 5718 5718 5719 5720 5719 5719 5719 5719 5720 5720 5720 5719 5720 5722 5724 5726 5725 5724 5725 5726 5726 5727 5727 5726 5725 5725 5725 5724 5725 5726 5725 5726 5726 5727 5727 5726 5725 5725 5725 5726 5725 5725 5726 5727 5728 5727 5728 5730 5729 5728 5727 5727 5726 5725 5725 5724 5723 5723 5720 5717 5718 5718 5718 5716 5717 5720 5719 5716 5717 5718 5718 5716 5716 5716 5714 5715 5715 5713 5712 5711 5709 5708 5707 5706
5709 5711 5712 5713 5713 5712 5712 5713 5714 5714 5713 5713 5713 5712 5714 5716 5716 5717 5718 5718 5718 5718 5720 5720 5721 5722 5721 5721 5720 5719 5719 5719 5720 5721 5720 5721 5721 5722 5722 5721 5720 5720 5721 5720 5719 5718 5719 5721 5723 5722 5722 5724 5724 5722 5721 5721 5720 5718 5719 5718 5717 5718 5715 5712 5711 5712 5711 5708 5711 5716 5715 5714 5714 5712 5712 5711 5711 5712 5709 5708 5707 5704 5704 5703 5702 5702 5700 5699
5702 5704 5706 5707 5707 5706 5706 5707 5708 5707 5706 5706 5705 5706 5710 5712 5710 5710 5711 5712 5711 5711 5713 5713 5714 5716 5716 5716 5716 5714 5713 5713 5714 5715 5715 5716 5716 5717 5718 5716 5714 5715 5715 5714 5713 5713 5713 5714 5717 5717 5716 5717 5718 5716 5715 5716 5715 5713 5713 5714 5713 5711 5709 5706 5703 5705 5705 5699 5703 5711 5710 5710 5710 5706 5707 5708 5705 5706 5704 5702 5701 5698 5696 5695 5693 5692 5691 5690
5695 5697 5700 5701 5701 5699 5699 5700 5701 5700 5699 5698 5697 5702 5707 5706 5705 5704 5704 5706 5705 5704 5706 5707 5707 5709 5710 5710 5710 5709 5708 5708 5708 5708 5709 5710 5709 5711 5713 5710 5709 5709 5709 5708 5707 5706 5707 5709 5712 5712 5709 5709 5711 5710 5708 5709 5709 5707 5707 5708 5707 5703 5701 5700 5696 5695 5697 5691 5694 5702 5702 5703 5704 5697 5697 5699 5698 5698 5697 5694 5692 5690 5688 5686 5684 5683 5681 5681
5687 5689 5692 5693 5693 5692 5692 5692 5693 5693 5691 5689 5692 5698 5699 5699 5700 5698 5697 5700 5699 5698 5700 5700 5700 5703 5703 5703 5703 5702 5701 5701 5701 5701 5703 5704 5703 5705 5706 5703 5703 5704 5704 5703 5701 5699 5700 5701 5705 5708 5703 5701 5704 5704 5701 5701 5702 5700 5699 5699 5699 5696 5694 5694 5689 5686 5686 5682 5683 5689 5692 5696 5697 5690 5686 5686 5688 5688 5687 5685 5683 5680 5679 5677 5675 5674 5673 5672
5678 5680 5684 5687 5687 5685 5684 5684 5684 5684 5682 5683 5688 5691 5692 5693 5693 5691 5691 5693 5694 5692 5693 5693 5694 5695 5695 5697 5698 5696 5694 5694 5694 5694 5695 5697 5697 5697 5698 5697 5697 5698 5697 5696 5695 5692 5692 5691 5695 5701 5698 5694 5695 5697 5695 5693 5692 5691 5689 5690 5690 5689 5688 5687 5683 5681 5679 5673 5672 5675 5679 5685 5689 5685 5680 5677 5677 5678 5677 5676 5675 5672 5670 5669 5667 5666 5664 5663
5670 5673 5677 5681 5680 5677 5677 5677 5677 5675 5675 5679 5682 5683 5684 5686 5686 5686 5685 5687 5687 5686 5686 5686 5686 5687 5688 5690 5691 5691 5689 5687 5688 5688 5687 5689 5689 5687 5689 5691 5690 5690 5688 5687 5686 5684 5684 5681 5683 5690 5692 5688 5687 5688 5687 5686 5684 5681 5681 5682 5682 5681 5680 5678 5676 5678 5675 5668 5666 5666 5666 5674 5680 5678 5674 5671 5669 5669 5670 5669 5668 5665 5663 5661 5659 5658 5656 5656
5663 5666 5672 5674 5671 5670 5670 5669 5670 5670 5669 5673 5676 5675 5676 5678 5681 5681 5679 5679 5680 5679 5679 5679 5679 5680 5682 5683 5684 5685 5683 5681 5681 5682 5681 5683 5682 5679 5680 5682 5682 5682 5681 5680 5677 5675 5675 5672 5671 5677 5681 5681 5681 5678 5676 5677 5677 5674 5673 5675 5674 5673 5672 5669 5667 5671 5671 5664 5662 5660 5657 5662 5671 5671 5668 5665 5662 5663 5663 5661 5660 5659 5657 5655 5654 5652 5650 5649
5656 5658 5664 5666 5663 5663 5662 5661 5664 5664 5662 5668 5670 5668 5669 5671 5673 5674 5672 5671 5672 5672 5672 5672 5673 5674 5674 5675 5677 5677 5676 5673 5674 5676 5675 5677 5676 5673 5673 5674 5674 5674 5674 5673 5671 5669 5668 5665 5663 5665 5669 5672 5675 5671 5667 5668 5670 5668 5666 5667 5668 5667 5667 5663 5659 5662 5663 5658 5657 5656 5650 5652 5661 5664 5662 5659 5658 5658 5656 5653 5653 5652 5651 5649 5647 5645 5643 5642
5649 5650 5655 5657 5655 5655 5654 5654 5658 5657 5657 5663 5664 5661 5662 5663 5665 5666 5665 5664 5665 5665 5665 5665 5667 5667 5667 5668 5668 5668 5668 5665 5666 5668 5668 5668 5668 5666 5667 5667 5667 5667 5665 5664 5663 5663 5661 5659 5656 5656 5658 5663 5667 5666 5662 5661 5662 5661 5660 5661 5661 5660 5660 5658 5654 5654 5652 5648 5651 5649 5642 5645 5653 5656 5655 5653 5652 5651 5648 5645 5645 5643 5642 5641 5639 5637 5636 5633
5642 5642 5646 5649 5648 5647 5646 5649 5652 5651 5653 5656 5654 5654 5655 5655 5657 5659 5657 5656 5657 5657 5657 5657 5659 5659 5660 5660 5659 5659 5660 5657 5657 5660 5660 5659 5658 5658 5660 5659 5658 5659 5658 5655 5655 5655 5654 5652 5650 5648 5648 5652 5657 5659 5656 5654 5655 5655 5654 5654 5653 5654 5653 5650 5649 5648 5641 5639 5643 5640 5635 5640 5646 5647 5647 5646 5643 5642 5641 5638 5637 5635 5633 5632 5629 5628 5626 5624
5633 5634 5638 5641 5640 5639 5640 5643 5644 5643 5646 5647 5645 5647 5649 5647 5650 5651 5649 5648 5648 5649 5649 5649 5651 5651 5652 5653 5651 5651 5651 5649 5649 5651 5652 5651 5649 5650 5652 5651 5650 5651 5650 5648 5648 5648 5646 5645 5645 5642 5640 5642 5647 5650 5650 5646 5645 5646 5646 5646 5646 5647 5647 5643 5641 5639 5633 5630 5633 5632 5630 5634 5639 5639 5639 5637 5633 5633 5633 5631 5629 5628 5625 5623 5621 5618 5617 5615
5625 5627 5631 5633 5632 5632 5635 5637 5637 5637 5639 5638 5637 5640 5641 5640 5642 5642 5641 5640 5640 5640 5641 5641 5643 5643 5644 5645 5643 5643 5644 5643 5642 5642 5644 5644 5641 5643 5645 5643 5643 5643 5642 5642 5641 5640 5638 5637 5639 5637 5634 5634 5636 5639 5642 5638 5633 5634 5637 5639 5641 5641 5640 5636 5632 5628 5625 5620 5620 5626 5628 5625 5628 5633 5631 5626 5622 5621 5623 5621 5619 5618 5617 5615 5613 5610 5608 5606
5618 5620 5623 5624 5623 5625 5629 5630 5630 5630 5630 5629 5629 5633 5634 5633 5633 5632 5633 5633 5633 5633 5633 5633 5635 5636 5636 5637 5635 5635 5636 5635 5633 5635 5637 5636 5634 5635 5637 5637 5636 5635 5635 5635 5633 5632 5630 5629 5633 5631 5627 5628 5628 5628 5631 5629 5624 5624 5627 5630 5634 5634 5632 5628 5622 5617 5617 5610 5607 5618 5622 5613 5615 5624 5623 5617 5611 5609 5611 5611 5608 5608 5607 5605 5603 5602 5600 5598
5611 5611 5615 5616 5615 5617 5621 5624 5622 5621 5621 5620 5621 5624 5625 5625 5624 5623 5625 5626 5626 5626 5626 5626 5627 5628 5628 5628 5627 5627 5629 5627 5625 5627 5629 5629 5626 5626 5628 5629 5628 5628 5629 5627 5625 5625 5622 5621 5626 5623 5618 5621 5622 5619 5620 5619 5616 5617 5619 5621 5624 5625 5624 5620 5613 5609 5609 5602 5599 5607 5610 5603 5605 5610 5610 5607 5603 5600 5601 5600 5598 5597 5596 5594 5594 5592 5591 5589
5602 5603 5605 5607 5608 5609 5613 5615 5614 5611 5612 5612 5612 5616 5618 5617 5617 5616 5616 5618 5619 5619 5619 5618 5619 5620 5620 5619 5619 5619 5620 5619 5617 5619 5621 5621 5620 5619 5619 5620 5620 5621 5622 5620 5619 5617 5614 5614 5618 5613 5610 5614 5616 5613 5610 5607 5606 5609 5611 5613 5615 5617 5615 5611 5605 5602 5600 5594 5593 5595 5593 5592 5597 5598 5595 5595 5594 5592 5591 5590 5588 5587 5584 5584 5584 5582 5581 5579
5594 5595 5595 5597 5599 5601 5604 5605 5604 5602 5603 5603 5605 5610 5610 5608 5610 5609 5606 5608 5611 5611 5611 5610 5610 5612 5612 5611 5611 5611 5612 5611 5610 5611 5612 5612 5612 5612 5612 5611 5612 5613 5614 5613 5611 5609 5606 5606 5607 5603 5600 5604 5610 5607 5599 5596 5597 5598 5601 5606 5609 5608 5605 5601 5599 5596 5591 5585 5586 5584 5578 5579 5585 5586 5583 5583 5583 5583 5581 5579 5578 5576 5574 5574 5574 5572 5570 5567
5586 5586 5586 5586 5589 5592 5594 5595 5595 5593 5594 5596 5599 5603 5601 5600 5603 5601 5595 5599 5603 5603 5603 5602 5602 5604 5603 5603 5603 5603 5603 5604 5603 5602 5603 5604 5605 5604 5604 5604 5604 5605 5606 5605 5603 5602 5600 5597 5597 5595 5589 5593 5603 5598 5587 5587 5588 5586 5591 5600 5602 5599 5595 5592 5591 5588 5584 5579 5576 5572 5568 5568 5571 5571 5571 5573 5573 5572 5571 5568 5567 5565 5563 5563 5562 5560 5558 5555
5576 5575 5576 5577 5579 5582 5584 5585 5584 5584 5587 5590 5592 5593 5592 5592 5595 5592 5587 5590 5594 5595 5594 5593 5594 5595 5594 5594 5595 5595 5596 5597 5596 5595 5595 5595 5596 5596 5596 5596 5597 5597 5597 5596 5594 5595 5593 5588 5588 5587 5579 5582 5594 5588 5578 5578 5577 5576 5587 5594 5592 5588 5584 5582 5581 5580 5578 5573 5566 5561 5559 5558 5558 5559 5561 5562 5562 5561 5560 5558 5556 5553 5550 5549 5549 5548 5545 5542